Huvudsida
METAR-TAF:

METAR-TAF

Flygplatser :

Aghajari, Iran

latitud: 30-46N, longitud: 049-40E, höjd: 29 m

Aktuellt väderrapport

Denna rapport gjordes för 49 minuter sedan, klockan 04:00 UTC
Vind 2 kt från sydost
Temperatur 8°C
Fuktighet 93%
Tryck 1016 hPa
Sikt: 6000 m

METAR: OIAG 200400Z 14002KT 6000 NSC 08/07 Q1016

Tid: 08:19 (04:49 UTC)


TAF: saknas

Aktuella väderrapporter och prognoser från 4000 flygplatser (METAR- och TAF-rapporter).

De tillgängliga stationerna syns som gula och röda prickar på kartan.

För musen över prickarna för att se namnen på stationerna.

Klicka sedan för att få väderrapporter och prognoser.

För att ändra kartan: Klicka på de gröna knapparna med ett svart kors på för att zooma in; den gröna knappen med ett streck på för att zooma ut; eller på de gröna pilarna för angränsande kartor.


METAR-TAF: